Simultaneous Nadir Overpasses (SNOs) Predictions

Prediction of SNOs between GOES-16 and NOAA-20 Satellite Orbit:

Table of predicted SNOs for the next 14.0 days since TLE Epoch: 5/27/2023
Index Date Time (GOES-16) GOES-16 Lat,Lon NOAA-20 Lat,Lon Distance(km) Time Diff (sec)
1 05/28/2023 06:43:04 -0.02, -75.20 0.92, -79.47 486.36 80
2 05/29/2023 06:26:58 -0.02, -75.21 -0.06, -74.93 31.18 80
3 05/31/2023 18:27:30 0.02, -75.23 -0.08, -75.70 54.17 80
4 06/01/2023 18:11:25 0.02, -75.23 0.91, -71.16 463.61 80
5 06/03/2023 06:30:32 -0.03, -75.25 0.27, -76.42 134.56 80
6 06/04/2023 06:14:28 -0.03, -75.26 -0.78, -71.90 383.22 80
7 06/05/2023 18:33:44 0.03, -75.27 -0.39, -77.20 219.60 80
8 06/06/2023 18:17:38 0.03, -75.28 0.60, -72.66 298.35 80
9 06/08/2023 06:36:46 -0.03, -75.30 0.57, -77.92 299.25 80
10 06/09/2023 06:20:41 -0.03, -75.31 -0.48, -73.40 219.17 80
